QPF
0.00 0.00 0.00 0.00 0.00 0.00 0.00 0.00 0.00 0.00 0.00 0.00 0.00 0.00 0.00 0.00 0.00 0.00 0.00 0.00 0.00 0.00 0.00 0.00 0.00 0.00 0.00 0.00 0.00 0.00 0.00 0.00 0.00 0.00 0.00 0.00 0.00 0.00 0.00 0.00 0.00 0.00 0.01 0.01 0.01 0.01 0.01 0.01 0.01
0.00 0.00 0.00 0.00 0.00 0.00 0.00 0.00 0.00 0.00 0.00 0.00 0.00 0.00 0.00 0.00 0.00 0.00 0.00 0.00 0.00 0.00 0.00 0.00 0.00 0.00 0.00 0.00 0.00 0.00 0.00 0.00 0.00 0.00 0.00 0.00 0.00 0.00 0.00 0.00 0.00 0.00 0.00 0.00 0.00 0.01 0.01 0.01 0.01
0.00 0.00 0.00 0.00 0.00 0.00 0.00 0.00 0.00 0.00 0.00 0.00 0.00 0.00 0.00 0.00 0.00 0.00 0.00 0.00 0.00 0.00 0.00 0.00 0.00 0.00 0.00 0.00 0.00 0.00 0.00 0.00 0.00 0.00 0.00 0.00 0.00 0.00 0.00 0.00 0.00 0.00 0.00 0.00 0.00 0.00 0.01 0.00 0.00
0.00 0.00 0.00 0.00 0.00 0.00 0.00 0.00 0.00 0.00 0.00 0.00 0.00 0.00 0.00 0.00 0.00 0.00 0.00 0.00 0.00 0.00 0.00 0.00 0.00 0.00 0.00 0.00 0.00 0.00 0.00 0.00 0.00 0.00 0.00 0.00 0.00 0.00 0.00 0.00 0.00 0.00 0.00 0.00 0.00 0.00 0.00 0.00 0.00
0.00 0.00 0.00 0.00 0.00 0.00 0.00 0.00 0.00 0.00 0.00 0.00 0.00 0.00 0.00 0.00 0.00 0.00 0.00 0.00 0.00 0.00 0.00 0.00 0.00 0.00 0.00 0.00 0.00 0.00 0.00 0.00 0.00 0.00 0.00 0.00 0.00 0.00 0.00 0.00 0.00 0.00 0.00 0.00 0.00 0.00 0.00 0.00 0.00
0.00 0.00 0.00 0.00 0.00 0.00 0.00 0.00 0.00 0.00 0.00 0.00 0.00 0.00 0.00 0.00 0.00 0.00 0.00 0.00 0.00 0.00 0.00 0.00 0.00 0.00 0.00 0.00 0.00 0.00 0.00 0.00 0.00 0.00 0.00 0.00 0.00 0.00 0.00 0.00 0.00 0.00 0.00 0.00 0.00 0.00 0.00 0.00 0.00
0.00 0.00 0.00 0.00 0.00 0.00 0.00 0.00 0.00 0.00 0.00 0.00 0.00 0.00 0.00 0.00 0.00 0.00 0.00 0.00 0.00 0.00 0.00 0.00 0.00 0.00 0.00 0.00 0.00 0.00 0.00 0.00 0.00 0.00 0.00 0.00 0.00 0.00 0.00 0.00 0.00 0.00 0.00 0.00 0.00 0.00 0.00 0.00 0.00
0.00 0.00 0.00 0.00 0.00 0.00 0.00 0.00 0.00 0.00 0.00 0.00 0.00 0.00 0.00 0.00 0.00 0.00 0.00 0.00 0.00 0.00 0.00 0.00 0.00 0.00 0.00 0.00 0.00 0.00 0.00 0.00 0.00 0.00 0.00 0.00 0.00 0.00 0.00 0.00 0.00 0.00 0.00 0.00 0.00 0.00 0.00 0.00 0.00
0.00 0.00 0.00 0.00 0.00 0.00 0.00 0.00 0.00 0.00 0.00 0.00 0.00 0.00 0.00 0.00 0.00 0.00 0.00 0.00 0.00 0.00 0.00 0.00 0.00 0.00 0.00 0.00 0.00 0.00 0.00 0.00 0.00 0.00 0.00 0.00 0.00 0.00 0.00 0.00 0.00 0.00 0.00 0.00 0.00 0.00 0.00 0.00 0.00
0.00 0.00 0.00 0.00 0.00 0.00 0.00 0.00 0.00 0.00 0.00 0.00 0.00 0.00 0.00 0.00 0.00 0.00 0.00 0.00 0.00 0.00 0.00 0.00 0.00 0.00 0.00 0.00 0.00 0.00 0.00 0.00 0.00 0.00 0.00 0.00 0.00 0.00 0.00 0.00 0.00 0.00 0.00 0.00 0.00 0.00 0.00 0.00 0.00
0.00 0.00 0.00 0.00 0.00 0.00 0.00 0.00 0.00 0.00 0.00 0.00 0.00 0.00 0.00 0.00 0.00 0.00 0.00 0.00 0.00 0.00 0.00 0.00 0.00 0.00 0.00 0.00 0.00 0.00 0.00 0.00 0.00 0.00 0.00 0.00 0.00 0.00 0.00 0.00 0.00 0.00 0.00 0.00 0.00 0.00 0.00 0.00 0.00
0.00 0.00 0.00 0.00 0.00 0.00 0.00 0.00 0.00 0.00 0.00 0.00 0.00 0.00 0.00 0.00 0.00 0.00 0.00 0.00 0.00 0.00 0.00 0.00 0.00 0.00 0.00 0.00 0.00 0.00 0.00 0.00 0.00 0.00 0.00 0.00 0.00 0.00 0.00 0.00 0.00 0.00 0.00 0.00 0.00 0.00 0.00 0.00 0.00
0.00 0.00 0.00 0.00 0.00 0.00 0.00 0.00 0.00 0.00 0.00 0.00 0.00 0.00 0.00 0.00 0.00 0.00 0.00 0.00 0.00 0.00 0.00 0.00 0.00 0.00 0.00 0.00 0.00 0.00 0.00 0.00 0.00 0.00 0.00 0.00 0.00 0.00 0.00 0.00 0.00 0.00 0.00 0.00 0.00 0.00 0.00 0.00 0.00
0.00 0.00 0.00 0.00 0.00 0.00 0.00 0.00 0.00 0.00 0.00 0.00 0.00 0.00 0.00 0.00 0.00 0.00 0.00 0.00 0.00 0.00 0.00 0.00 0.00 0.00 0.00 0.00 0.00 0.00 0.00 0.00 0.00 0.00 0.00 0.00 0.00 0.00 0.00 0.00 0.00 0.00 0.00 0.00 0.00 0.00 0.00 0.00 0.00
0.00 0.00 0.00 0.00 0.00 0.00 0.00 0.00 0.00 0.00 0.00 0.00 0.00 0.00 0.00 0.00 0.00 0.00 0.00 0.00 0.00 0.00 0.00 0.00 0.00 0.00 0.00 0.00 0.00 0.00 0.00 0.00 0.00 0.00 0.00 0.00 0.00 0.00 0.00 0.00 0.00 0.00 0.00 0.00 0.00 0.00 0.00 0.00 0.00
0.00 0.00 0.00 0.00 0.00 0.00 0.00 0.00 0.00 0.00 0.00 0.00 0.00 0.00 0.00 0.00 0.00 0.00 0.00 0.00 0.00 0.00 0.00 0.00 0.00 0.00 0.00 0.00 0.00 0.00 0.00 0.00 0.00 0.00 0.00 0.00 0.00 0.00 0.00 0.00 0.00 0.00 0.00 0.00 0.00 0.00 0.00 0.00 0.00
0.00 0.00 0.00 0.00 0.00 0.00 0.00 0.00 0.00 0.00 0.00 0.00 0.00 0.00 0.00 0.00 0.00 0.00 0.00 0.00 0.00 0.00 0.00 0.00 0.00 0.00 0.00 0.00 0.00 0.00 0.00 0.00 0.00 0.00 0.00 0.00 0.00 0.00 0.00 0.00 0.00 0.00 0.00 0.00 0.00 0.00 0.00 0.00 0.00
0.00 0.00 0.00 0.00 0.00 0.00 0.00 0.00 0.00 0.00 0.00 0.00 0.00 0.00 0.00 0.00 0.00 0.00 0.00 0.00 0.00 0.00 0.00 0.00 0.00 0.00 0.00 0.00 0.00 0.00 0.00 0.00 0.00 0.00 0.00 0.00 0.00 0.00 0.00 0.00 0.00 0.00 0.00 0.00 0.00 0.00 0.00 0.00 0.00
0.00 0.00 0.00 0.00 0.00 0.00 0.00 0.00 0.00 0.00 0.00 0.00 0.00 0.00 0.00 0.00 0.00 0.00 0.00 0.00 0.00 0.00 0.00 0.00 0.00 0.00 0.00 0.00 0.00 0.00 0.00 0.00 0.00 0.00 0.00 0.00 0.00 0.00 0.00 0.00 0.00 0.00 0.00 0.00 0.00 0.00 0.00 0.00 0.00
0.00 0.00 0.00 0.00 0.00 0.00 0.00 0.00 0.00 0.00 0.00 0.00 0.00 0.00 0.00 0.00 0.00 0.00 0.00 0.00 0.00 0.00 0.00 0.00 0.00 0.00 0.00 0.00 0.00 0.00 0.00 0.00 0.00 0.00 0.00 0.00 0.00 0.00 0.00 0.00 0.00 0.00 0.00 0.00 0.00 0.00 0.00 0.00 0.00
0.00 0.00 0.00 0.00 0.00 0.00 0.00 0.00 0.00 0.00 0.00 0.00 0.00 0.00 0.00 0.00 0.00 0.00 0.00 0.00 0.00 0.00 0.00 0.00 0.00 0.00 0.00 0.00 0.00 0.00 0.00 0.00 0.00 0.00 0.00 0.00 0.00 0.00 0.00 0.00 0.00 0.00 0.00 0.00 0.00 0.00 0.00 0.00 0.00
0.00 0.00 0.00 0.00 0.00 0.00 0.00 0.00 0.00 0.00 0.00 0.00 0.00 0.00 0.00 0.00 0.00 0.00 0.00 0.00 0.00 0.00 0.00 0.00 0.00 0.00 0.00 0.00 0.00 0.00 0.00 0.00 0.00 0.00 0.00 0.00 0.00 0.00 0.00 0.00 0.00 0.00 0.00 0.00 0.00 0.00 0.00 0.00 0.00
0.00 0.00 0.00 0.00 0.00 0.00 0.00 0.00 0.00 0.00 0.00 0.00 0.00 0.00 0.00 0.00 0.00 0.00 0.00 0.00 0.00 0.00 0.00 0.00 0.00 0.00 0.00 0.00 0.00 0.00 0.00 0.00 0.00 0.00 0.00 0.00 0.00 0.00 0.00 0.00 0.00 0.00 0.00 0.00 0.00 0.00 0.00 0.00 0.00
0.00 0.00 0.00 0.00 0.00 0.00 0.00 0.00 0.00 0.00 0.00 0.00 0.00 0.00 0.00 0.00 0.00 0.00 0.00 0.00 0.00 0.00 0.00 0.00 0.00 0.00 0.00 0.00 0.00 0.00 0.00 0.00 0.00 0.00 0.00 0.00 0.00 0.00 0.00 0.00 0.00 0.00 0.00 0.00 0.00 0.00 0.00 0.00 0.00
0.00 0.00 0.00 0.00 0.00 0.00 0.00 0.00 0.00 0.00 0.00 0.00 0.00 0.00 0.00 0.00 0.00 0.00 0.00 0.00 0.00 0.00 0.00 0.00 0.00 0.00 0.00 0.00 0.00 0.00 0.00 0.00 0.00 0.00 0.00 0.00 0.00 0.00 0.00 0.00 0.00 0.00 0.00 0.00 0.00 0.00 0.00 0.00 0.00
0.00 0.00 0.00 0.00 0.00 0.00 0.00 0.00 0.00 0.00 0.00 0.00 0.00 0.00 0.00 0.00 0.00 0.00 0.00 0.00 0.00 0.00 0.00 0.00 0.00 0.00 0.00 0.00 0.00 0.00 0.00 0.00 0.00 0.00 0.00 0.00 0.00 0.00 0.00 0.00 0.00 0.00 0.00 0.00 0.00 0.00 0.00 0.00 0.00
0.00 0.00 0.00 0.00 0.00 0.00 0.00 0.00 0.00 0.00 0.00 0.00 0.00 0.00 0.00 0.00 0.00 0.00 0.00 0.00 0.00 0.00 0.00 0.00 0.00 0.00 0.00 0.00 0.00 0.00 0.00 0.00 0.00 0.00 0.00 0.00 0.00 0.00 0.00 0.00 0.00 0.00 0.00 0.00 0.00 0.00 0.00 0.00 0.00
0.00 0.00 0.00 0.00 0.00 0.00 0.00 0.00 0.00 0.00 0.00 0.00 0.00 0.00 0.00 0.00 0.00 0.00 0.00 0.00 0.00 0.00 0.00 0.00 0.00 0.00 0.00 0.00 0.00 0.00 0.00 0.00 0.00 0.00 0.00 0.00 0.00 0.00 0.00 0.00 0.00 0.00 0.00 0.00 0.00 0.00 0.00 0.00 0.00
0.00 0.00 0.00 0.00 0.00 0.00 0.00 0.00 0.00 0.00 0.00 0.00 0.00 0.00 0.00 0.00 0.00 0.00 0.00 0.00 0.00 0.00 0.00 0.00 0.00 0.00 0.00 0.00 0.00 0.00 0.00 0.00 0.00 0.00 0.00 0.00 0.00 0.00 0.00 0.00 0.00 0.00 0.00 0.00 0.00 0.00 0.00 0.00 0.00
0.00 0.00 0.00 0.00 0.00 0.00 0.00 0.00 0.00 0.00 0.00 0.00 0.00 0.00 0.00 0.00 0.00 0.00 0.00 0.00 0.00 0.00 0.00 0.00 0.00 0.00 0.00 0.00 0.00 0.00 0.00 0.00 0.00 0.00 0.00 0.00 0.00 0.00 0.00 0.00 0.00 0.00 0.00 0.00 0.00 0.00 0.00 0.00 0.00
MSLP
1015.66 1016.40 1017.46 1018.74 1020.14 1021.51 1022.76 1023.79 1024.57 1025.10 1025.43 1025.65 1025.83 1026.05 1026.33 1026.67 1027.06 1027.43 1027.74 1027.95 1028.03 1028.02 1027.93 1027.83 1027.77 1027.77 1027.86 1028.00 1028.17 1028.31 1028.40 1028.39 1028.30 1028.15 1027.97 1027.82 1027.72 1027.70 1027.75 1027.84 1027.93 1027.96 1027.93 1027.80 1027.61 1027.39 1027.18 1027.02 1026.95
1016.12 1017.06 1018.26 1019.63 1021.04 1022.35 1023.47 1024.31 1024.88 1025.19 1025.34 1025.42 1025.52 1025.71 1026.00 1026.40 1026.84 1027.27 1027.63 1027.86 1027.96 1027.95 1027.87 1027.77 1027.72 1027.76 1027.88 1028.08 1028.31 1028.52 1028.68 1028.74 1028.71 1028.61 1028.48 1028.35 1028.26 1028.23 1028.25 1028.30 1028.34 1028.34 1028.26 1028.11 1027.91 1027.69 1027.50 1027.37 1027.33
1016.76 1017.82 1019.11 1020.48 1021.83 1023.01 1023.95 1024.59 1024.95 1025.10 1025.12 1025.13 1025.21 1025.42 1025.77 1026.23 1026.75 1027.24 1027.63 1027.89 1028.01 1028.00 1027.92 1027.83 1027.80 1027.84 1027.99 1028.22 1028.49 1028.76 1028.97 1029.09 1029.12 1029.08 1028.99 1028.89 1028.81 1028.77 1028.75 1028.74 1028.72 1028.65 1028.52 1028.33 1028.11 1027.89 1027.71 1027.62 1027.62
1017.51 1018.66 1019.95 1021.25 1022.46 1023.46 1024.19 1024.64 1024.83 1024.85 1024.81 1024.80 1024.92 1025.19 1025.62 1026.17 1026.76 1027.30 1027.74 1028.03 1028.16 1028.16 1028.10 1028.02 1027.99 1028.04 1028.20 1028.43 1028.71 1028.99 1029.23 1029.40 1029.48 1029.50 1029.46 1029.40 1029.33 1029.28 1029.22 1029.16 1029.06 1028.92 1028.73 1028.51 1028.27 1028.05 1027.90 1027.84 1027.88
1018.33 1019.49 1020.72 1021.89 1022.91 1023.70 1024.22 1024.48 1024.54 1024.49 1024.44 1024.48 1024.67 1025.04 1025.56 1026.19 1026.84 1027.43 1027.90 1028.21 1028.37 1028.40 1028.35 1028.29 1028.27 1028.32 1028.47 1028.68 1028.94 1029.21 1029.45 1029.64 1029.77 1029.83 1029.85 1029.84 1029.80 1029.75 1029.67 1029.56 1029.41 1029.21 1028.97 1028.71 1028.46 1028.25 1028.13 1028.11 1028.20
1019.12 1020.25 1021.35 1022.35 1023.16 1023.72 1024.04 1024.16 1024.13 1024.07 1024.06 1024.18 1024.47 1024.94 1025.56 1026.25 1026.94 1027.56 1028.05 1028.38 1028.56 1028.63 1028.62 1028.59 1028.59 1028.64 1028.76 1028.95 1029.17 1029.40 1029.63 1029.82 1029.98 1030.09 1030.17 1030.22 1030.23 1030.20 1030.12 1029.99 1029.80 1029.56 1029.28 1029.00 1028.75 1028.57 1028.47 1028.49 1028.61
1019.82 1020.86 1021.81 1022.60 1023.19 1023.54 1023.70 1023.70 1023.64 1023.61 1023.68 1023.91 1024.31 1024.88 1025.56 1026.29 1027.00 1027.62 1028.11 1028.46 1028.67 1028.78 1028.82 1028.84 1028.87 1028.94 1029.04 1029.19 1029.37 1029.56 1029.76 1029.95 1030.13 1030.30 1030.44 1030.55 1030.62 1030.63 1030.57 1030.44 1030.23 1029.98 1029.69 1029.41 1029.18 1029.02 1028.96 1029.01 1029.14
1020.37 1021.29 1022.06 1022.65 1023.02 1023.20 1023.22 1023.16 1023.11 1023.14 1023.31 1023.65 1024.15 1024.79 1025.51 1026.25 1026.94 1027.53 1028.01 1028.37 1028.61 1028.78 1028.89 1028.98 1029.07 1029.16 1029.27 1029.39 1029.54 1029.69 1029.86 1030.06 1030.26 1030.47 1030.68 1030.86 1030.99 1031.05 1031.02 1030.91 1030.71 1030.46 1030.18 1029.93 1029.72 1029.59 1029.57 1029.64 1029.78
1020.77 1021.54 1022.13 1022.52 1022.70 1022.73 1022.66 1022.58 1022.55 1022.66 1022.93 1023.37 1023.96 1024.64 1025.37 1026.07 1026.72 1027.27 1027.72 1028.08 1028.37 1028.59 1028.79 1028.96 1029.12 1029.27 1029.40 1029.53 1029.65 1029.79 1029.95 1030.15 1030.38 1030.63 1030.89 1031.13 1031.32 1031.43 1031.44 1031.35 1031.18 1030.95 1030.70 1030.48 1030.31 1030.23 1030.23 1030.31 1030.44
1021.04 1021.66 1022.07 1022.27 1022.30 1022.21 1022.08 1021.99 1022.01 1022.20 1022.55 1023.07 1023.70 1024.39 1025.09 1025.75 1026.33 1026.82 1027.24 1027.60 1027.92 1028.22 1028.50 1028.77 1029.02 1029.23 1029.42 1029.57 1029.70 1029.84 1030.00 1030.21 1030.46 1030.75 1031.06 1031.34 1031.58 1031.72 1031.77 1031.71 1031.57 1031.38 1031.18 1031.00 1030.89 1030.84 1030.87 1030.95 1031.07
1021.22 1021.69 1021.94 1021.99 1021.89 1021.71 1021.54 1021.45 1021.51 1021.74 1022.16 1022.71 1023.35 1024.02 1024.67 1025.25 1025.76 1026.20 1026.58 1026.94 1027.30 1027.66 1028.04 1028.40 1028.75 1029.05 1029.30 1029.50 1029.67 1029.82 1030.00 1030.22 1030.49 1030.80 1031.14 1031.45 1031.71 1031.88 1031.96 1031.94 1031.84 1031.69 1031.54 1031.42 1031.35 1031.35 1031.40 1031.48 1031.56
1021.39 1021.72 1021.84 1021.76 1021.56 1021.31 1021.10 1021.00 1021.07 1021.32 1021.75 1022.29 1022.91 1023.53 1024.11 1024.62 1025.06 1025.45 1025.80 1026.16 1026.55 1026.98 1027.44 1027.90 1028.34 1028.72 1029.05 1029.31 1029.52 1029.71 1029.91 1030.15 1030.43 1030.75 1031.09 1031.41 1031.68 1031.87 1031.97 1031.98 1031.93 1031.84 1031.75 1031.69 1031.67 1031.70 1031.76 1031.82 1031.85
1021.57 1021.80 1021.81 1021.64 1021.36 1021.05 1020.80 1020.67 1020.72 1020.94 1021.33 1021.83 1022.38 1022.93 1023.44 1023.89 1024.27 1024.62 1024.96 1025.32 1025.74 1026.22 1026.74 1027.28 1027.80 1028.26 1028.66 1028.99 1029.25 1029.48 1029.71 1029.96 1030.24 1030.56 1030.89 1031.20 1031.47 1031.67 1031.79 1031.84 1031.84 1031.81 1031.78 1031.78 1031.80 1031.86 1031.91 1031.95 1031.93
1021.81 1021.95 1021.88 1021.65 1021.31 1020.95 1020.65 1020.47 1020.45 1020.60 1020.91 1021.31 1021.78 1022.25 1022.69 1023.08 1023.43 1023.76 1024.09 1024.47 1024.92 1025.43 1025.99 1026.58 1027.16 1027.69 1028.15 1028.54 1028.86 1029.13 1029.38 1029.64 1029.92 1030.22 1030.52 1030.82 1031.08 1031.29 1031.44 1031.53 1031.59 1031.63 1031.67 1031.72 1031.78 1031.84 1031.88 1031.87 1031.79
1022.06 1022.15 1022.03 1021.76 1021.39 1020.98 1020.62 1020.36 1020.24 1020.28 1020.45 1020.75 1021.11 1021.49 1021.87 1022.23 1022.56 1022.89 1023.23 1023.63 1024.09 1024.62 1025.21 1025.83 1026.44 1027.02 1027.54 1027.98 1028.35 1028.67 1028.95 1029.21 1029.48 1029.76 1030.04 1030.31 1030.56 1030.78 1030.96 1031.11 1031.23 1031.34 1031.45 1031.54 1031.63 1031.69 1031.70 1031.64 1031.48
1022.28 1022.35 1022.21 1021.93 1021.53 1021.09 1020.66 1020.29 1020.04 1019.93 1019.96 1020.11 1020.35 1020.65 1020.98 1021.32 1021.66 1022.01 1022.38 1022.79 1023.27 1023.80 1024.40 1025.03 1025.66 1026.28 1026.84 1027.33 1027.76 1028.11 1028.42 1028.70 1028.95 1029.21 1029.46 1029.71 1029.96 1030.20 1030.42 1030.63 1030.82 1031.00 1031.16 1031.30 1031.41 1031.45 1031.42 1031.30 1031.07
1022.42 1022.47 1022.35 1022.08 1021.67 1021.20 1020.69 1020.21 1019.80 1019.52 1019.37 1019.37 1019.49 1019.72 1020.01 1020.35 1020.72 1021.10 1021.50 1021.94 1022.42 1022.96 1023.54 1024.17 1024.82 1025.46 1026.06 1026.61 1027.09 1027.49 1027.83 1028.12 1028.37 1028.61 1028.84 1029.08 1029.33 1029.58 1029.85 1030.12 1030.38 1030.63 1030.84 1031.02 1031.13 1031.15 1031.08 1030.90 1030.61
1022.41 1022.48 1022.39 1022.15 1021.76 1021.25 1020.66 1020.06 1019.49 1019.02 1018.69 1018.52 1018.52 1018.67 1018.94 1019.29 1019.69 1020.12 1020.57 1021.03 1021.52 1022.04 1022.62 1023.24 1023.89 1024.55 1025.20 1025.81 1026.35 1026.81 1027.19 1027.50 1027.75 1027.98 1028.20 1028.43 1028.68 1028.96 1029.27 1029.59 1029.92 1030.22 1030.48 1030.68 1030.80 1030.81 1030.70 1030.48 1030.15
1022.25 1022.35 1022.32 1022.13 1021.76 1021.23 1020.56 1019.83 1019.09 1018.42 1017.90 1017.57 1017.45 1017.53 1017.77 1018.14 1018.58 1019.05 1019.54 1020.02 1020.52 1021.04 1021.60 1022.21 1022.87 1023.56 1024.25 1024.92 1025.53 1026.05 1026.48 1026.83 1027.09 1027.32 1027.53 1027.76 1028.02 1028.32 1028.67 1029.04 1029.41 1029.76 1030.06 1030.28 1030.40 1030.40 1030.28 1030.05 1029.71
1021.96 1022.12 1022.17 1022.04 1021.70 1021.15 1020.41 1019.54 1018.62 1017.76 1017.05 1016.55 1016.30 1016.30 1016.51 1016.89 1017.37 1017.89 1018.41 1018.92 1019.42 1019.92 1020.47 1021.07 1021.74 1022.46 1023.20 1023.93 1024.61 1025.20 1025.69 1026.08 1026.37 1026.61 1026.83 1027.06 1027.32 1027.64 1028.02 1028.42 1028.83 1029.22 1029.54 1029.77 1029.90 1029.91 1029.80 1029.59 1029.28
1021.61 1021.86 1021.99 1021.94 1021.64 1021.07 1020.25 1019.25 1018.15 1017.09 1016.18 1015.50 1015.12 1015.04 1015.22 1015.59 1016.10 1016.65 1017.20 1017.72 1018.22 1018.72 1019.25 1019.84 1020.51 1021.25 1022.04 1022.83 1023.57 1024.23 1024.79 1025.22 1025.55 1025.81 1026.04 1026.28 1026.56 1026.90 1027.29 1027.72 1028.15 1028.55 1028.89 1029.14 1029.28 1029.31 1029.24 1029.07 1028.82
1021.30 1021.65 1021.89 1021.92 1021.66 1021.07 1020.17 1019.02 1017.75 1016.49 1015.38 1014.53 1014.01 1013.82 1013.95 1014.31 1014.82 1015.39 1015.95 1016.48 1016.97 1017.46 1017.96 1018.54 1019.20 1019.96 1020.77 1021.61 1022.41 1023.13 1023.74 1024.22 1024.59 1024.89 1025.15 1025.41 1025.71 1026.06 1026.47 1026.91 1027.36 1027.76 1028.11 1028.37 1028.53 1028.60 1028.57 1028.47 1028.31
1021.12 1021.58 1021.93 1022.03 1021.80 1021.19 1020.21 1018.92 1017.47 1016.02 1014.71 1013.69 1013.02 1012.73 1012.79 1013.11 1013.61 1014.18 1014.74 1015.26 1015.73 1016.19 1016.67 1017.22 1017.87 1018.61 1019.43 1020.29 1021.13 1021.89 1022.55 1023.08 1023.50 1023.84 1024.14 1024.44 1024.77 1025.15 1025.57 1026.03 1026.47 1026.88 1027.23 1027.49 1027.67 1027.77 1027.80 1027.78 1027.71
1021.12 1021.70 1022.14 1022.31 1022.10 1021.45 1020.38 1018.96 1017.35 1015.71 1014.23 1013.03 1012.22 1011.82 1011.79 1012.06 1012.52 1013.07 1013.61 1014.11 1014.56 1014.98 1015.42 1015.93 1016.54 1017.26 1018.07 1018.92 1019.77 1020.55 1021.25 1021.82 1022.29 1022.68 1023.03 1023.38 1023.75 1024.17 1024.62 1025.09 1025.54 1025.95 1026.29 1026.55 1026.74 1026.87 1026.95 1026.99 1027.00
1021.30 1021.97 1022.48 1022.69 1022.48 1021.79 1020.64 1019.11 1017.35 1015.55 1013.91 1012.57 1011.63 1011.12 1011.00 1011.20 1011.61 1012.11 1012.62 1013.08 1013.50 1013.88 1014.28 1014.74 1015.30 1015.97 1016.74 1017.56 1018.39 1019.18 1019.88 1020.49 1021.00 1021.45 1021.86 1022.27 1022.70 1023.17 1023.66 1024.14 1024.60 1025.01 1025.34 1025.59 1025.78 1025.92 1026.03 1026.11 1026.19
1021.59 1022.32 1022.87 1023.09 1022.86 1022.11 1020.88 1019.26 1017.39 1015.48 1013.73 1012.27 1011.23 1010.62 1010.41 1010.54 1010.88 1011.32 1011.79 1012.21 1012.58 1012.91 1013.27 1013.67 1014.18 1014.79 1015.50 1016.27 1017.06 1017.82 1018.52 1019.14 1019.69 1020.19 1020.67 1021.15 1021.65 1022.17 1022.71 1023.22 1023.70 1024.10 1024.42 1024.66 1024.83 1024.96 1025.07 1025.18 1025.27
1021.89 1022.63 1023.17 1023.36 1023.08 1022.28 1020.99 1019.31 1017.38 1015.42 1013.60 1012.08 1010.96 1010.28 1010.00 1010.05 1010.32 1010.70 1011.10 1011.47 1011.80 1012.09 1012.40 1012.76 1013.20 1013.75 1014.39 1015.10 1015.83 1016.55 1017.22 1017.84 1018.42 1018.96 1019.50 1020.04 1020.61 1021.20 1021.78 1022.34 1022.83 1023.23 1023.54 1023.76 1023.91 1024.02 1024.11 1024.19 1024.27
1022.08 1022.77 1023.24 1023.36 1023.01 1022.16 1020.83 1019.13 1017.21 1015.25 1013.44 1011.92 1010.78 1010.06 1009.72 1009.70 1009.89 1010.20 1010.54 1010.86 1011.14 1011.40 1011.66 1011.98 1012.38 1012.87 1013.44 1014.07 1014.73 1015.39 1016.03 1016.63 1017.21 1017.78 1018.36 1018.96 1019.60 1020.24 1020.88 1021.47 1021.98 1022.39 1022.69 1022.90 1023.02 1023.09 1023.13 1023.17 1023.21
1022.06 1022.63 1022.98 1022.98 1022.55 1021.65 1020.32 1018.65 1016.79 1014.92 1013.18 1011.72 1010.62 1009.90 1009.53 1009.45 1009.57 1009.80 1010.06 1010.32 1010.56 1010.78 1011.02 1011.31 1011.67 1012.11 1012.62 1013.19 1013.78 1014.37 1014.95 1015.52 1016.08 1016.66 1017.26 1017.91 1018.58 1019.28 1019.95 1020.58 1021.11 1021.53 1021.84 1022.02 1022.12 1022.15 1022.15 1022.14 1022.11
1021.79 1022.18 1022.35 1022.20 1021.67 1020.73 1019.43 1017.85 1016.12 1014.40 1012.81 1011.47 1010.45 1009.76 1009.38 1009.25 1009.29 1009.44 1009.63 1009.82 1010.01 1010.21 1010.43 1010.70 1011.04 1011.44 1011.90 1012.40 1012.92 1013.45 1013.97 1014.48 1015.01 1015.58 1016.19 1016.85 1017.55 1018.27 1018.98 1019.63 1020.19 1020.63 1020.93 1021.11 1021.19 1021.19 1021.15 1021.08 1020.99
Thickness
5733 5733 5732 5721 5697 5673 5672 5675 5672 5667 5667 5663 5661 5662 5660 5656 5651 5652 5640 5641 5640 5638 5636 5634 5631 5629 5627 5625 5624 5623 5622 5621 5621 5621 5621 5621 5620 5620 5620 5620 5620 5621 5621 5621 5622 5622 5623 5624 5625
5734 5733 5725 5707 5682 5667 5671 5677 5670 5672 5669 5660 5659 5659 5659 5656 5648 5642 5638 5638 5638 5636 5634 5632 5629 5626 5624 5622 5620 5619 5618 5617 5616 5615 5615 5614 5614 5613 5613 5613 5613 5613 5614 5614 5614 5614 5615 5615 5616
5735 5731 5712 5693 5679 5672 5681 5680 5673 5668 5663 5663 5659 5657 5658 5655 5645 5640 5641 5638 5636 5634 5631 5629 5626 5623 5621 5618 5616 5615 5613 5612 5610 5609 5608 5607 5607 5606 5605 5605 5605 5605 5605 5606 5606 5606 5606 5606 5607
5731 5718 5703 5687 5684 5681 5680 5680 5672 5665 5664 5663 5659 5656 5653 5653 5647 5644 5641 5637 5634 5631 5629 5626 5623 5620 5617 5614 5612 5610 5608 5606 5605 5603 5601 5600 5599 5598 5597 5597 5597 5597 5597 5597 5597 5597 5596 5596 5597
5725 5707 5690 5678 5683 5681 5678 5677 5671 5668 5666 5662 5658 5658 5655 5650 5647 5643 5639 5635 5632 5629 5626 5623 5621 5617 5614 5611 5608 5605 5603 5601 5598 5596 5594 5592 5591 5590 5588 5588 5588 5588 5587 5587 5587 5587 5586 5585 5586
5710 5698 5680 5675 5682 5682 5679 5676 5672 5671 5666 5659 5657 5656 5656 5647 5642 5639 5636 5632 5630 5627 5623 5621 5618 5614 5610 5607 5604 5601 5598 5595 5592 5589 5586 5584 5582 5581 5579 5579 5578 5577 5577 5576 5576 5575 5574 5574 5573
5704 5690 5682 5683 5678 5679 5681 5676 5673 5669 5665 5662 5659 5659 5655 5643 5640 5637 5633 5629 5626 5623 5620 5617 5614 5611 5607 5603 5600 5596 5593 5589 5586 5583 5579 5576 5573 5572 5570 5569 5568 5567 5566 5565 5564 5563 5562 5560 5559
5706 5689 5680 5674 5673 5680 5684 5677 5678 5671 5669 5665 5660 5662 5659 5647 5639 5633 5629 5625 5622 5620 5617 5614 5611 5607 5603 5599 5596 5592 5588 5584 5580 5576 5572 5568 5565 5563 5561 5559 5558 5556 5555 5553 5552 5550 5548 5546 5544
5709 5685 5676 5677 5674 5684 5682 5676 5677 5674 5665 5660 5659 5661 5659 5647 5637 5629 5623 5619 5618 5617 5614 5611 5608 5604 5600 5596 5592 5588 5583 5579 5575 5571 5566 5563 5559 5556 5552 5550 5548 5546 5543 5541 5539 5537 5534 5531 5528
5698 5681 5685 5690 5685 5687 5679 5677 5673 5668 5665 5662 5659 5656 5648 5642 5636 5631 5626 5622 5619 5616 5613 5610 5606 5602 5598 5593 5589 5584 5579 5575 5570 5566 5562 5557 5553 5549 5545 5541 5538 5535 5533 5530 5527 5524 5520 5517 5513
5698 5689 5690 5689 5688 5686 5678 5676 5672 5669 5666 5669 5667 5659 5645 5640 5636 5634 5632 5628 5623 5618 5613 5610 5605 5601 5596 5592 5587 5582 5577 5572 5567 5562 5557 5552 5548 5543 5538 5534 5530 5527 5523 5519 5515 5511 5507 5502 5498
5692 5687 5686 5685 5685 5682 5679 5676 5669 5670 5680 5681 5675 5663 5650 5644 5641 5640 5637 5630 5624 5618 5614 5610 5605 5600 5595 5590 5585 5580 5575 5569 5564 5558 5553 5548 5542 5537 5532 5527 5523 5518 5514 5509 5504 5499 5494 5488 5483
5688 5685 5684 5683 5682 5680 5678 5673 5673 5677 5682 5679 5671 5660 5654 5651 5649 5645 5640 5632 5625 5620 5616 5611 5605 5600 5595 5589 5584 5578 5573 5568 5562 5555 5549 5543 5538 5532 5526 5521 5516 5510 5505 5500 5494 5488 5482 5476 5470
5684 5681 5680 5680 5680 5679 5676 5676 5673 5686 5684 5675 5667 5661 5658 5656 5654 5645 5639 5635 5629 5624 5619 5612 5606 5601 5595 5589 5583 5577 5572 5565 5559 5552 5546 5539 5533 5527 5520 5514 5508 5502 5496 5490 5484 5477 5470 5464 5457
5680 5678 5679 5679 5678 5676 5674 5673 5679 5691 5680 5675 5668 5663 5660 5658 5655 5652 5649 5644 5637 5629 5622 5614 5608 5601 5595 5589 5582 5576 5570 5563 5556 5549 5542 5535 5528 5522 5515 5508 5501 5495 5488 5481 5474 5467 5460 5453 5446
5678 5672 5671 5678 5674 5672 5670 5673 5695 5691 5679 5677 5670 5662 5660 5660 5658 5657 5652 5646 5639 5631 5624 5617 5610 5602 5595 5589 5582 5575 5568 5561 5554 5546 5539 5531 5524 5516 5509 5502 5494 5487 5480 5472 5465 5457 5449 5442 5434
5668 5663 5667 5672 5670 5665 5663 5671 5690 5685 5678 5679 5675 5667 5663 5662 5660 5658 5654 5649 5642 5635 5627 5619 5612 5605 5596 5588 5581 5573 5565 5558 5551 5543 5536 5528 5520 5512 5504 5496 5488 5479 5471 5463 5455 5448 5438 5430 5423
5668 5664 5663 5663 5669 5659 5656 5669 5690 5684 5677 5678 5679 5674 5669 5669 5673 5668 5658 5651 5644 5637 5629 5621 5613 5606 5596 5586 5577 5568 5561 5555 5548 5540 5533 5524 5516 5507 5499 5490 5481 5472 5463 5454 5445 5436 5427 5418 5411
5670 5665 5658 5662 5668 5656 5658 5672 5693 5697 5682 5683 5684 5680 5679 5681 5681 5670 5662 5653 5645 5637 5630 5623 5614 5606 5595 5584 5575 5565 5559 5553 5545 5538 5530 5521 5512 5503 5493 5484 5474 5464 5454 5445 5435 5425 5415 5406 5397
5662 5657 5654 5660 5663 5655 5657 5672 5695 5700 5698 5700 5698 5693 5689 5685 5679 5671 5664 5657 5650 5642 5634 5626 5618 5608 5599 5590 5580 5569 5560 5552 5544 5536 5527 5518 5508 5498 5488 5478 5467 5457 5446 5435 5424 5413 5402 5392 5381
5660 5654 5655 5656 5660 5655 5652 5675 5692 5702 5699 5698 5693 5693 5691 5689 5686 5677 5668 5661 5654 5647 5640 5633 5622 5612 5601 5590 5576 5565 5555 5547 5539 5531 5524 5515 5505 5494 5484 5473 5461 5449 5438 5426 5415 5403 5390 5378 5365
5651 5659 5656 5655 5646 5641 5648 5650 5691 5695 5697 5702 5700 5691 5690 5689 5687 5682 5674 5665 5660 5656 5646 5635 5624 5613 5602 5589 5578 5568 5560 5552 5544 5534 5523 5512 5501 5490 5479 5467 5455 5443 5431 5418 5406 5394 5380 5366 5353
5656 5659 5653 5647 5640 5633 5636 5635 5677 5685 5695 5706 5708 5703 5698 5694 5689 5685 5681 5675 5667 5658 5646 5635 5624 5613 5602 5590 5581 5570 5563 5554 5540 5528 5517 5506 5496 5485 5473 5462 5449 5437 5424 5411 5397 5384 5370 5355 5341
5655 5649 5637 5626 5623 5624 5635 5625 5658 5680 5694 5702 5707 5706 5702 5697 5690 5685 5680 5672 5664 5654 5644 5633 5622 5613 5601 5590 5580 5571 5562 5549 5535 5523 5512 5501 5489 5479 5468 5456 5443 5431 5417 5404 5390 5376 5361 5346 5331
5648 5634 5621 5624 5620 5625 5632 5626 5657 5692 5693 5693 5696 5698 5698 5693 5686 5681 5675 5669 5663 5653 5644 5633 5621 5612 5601 5589 5579 5570 5561 5548 5536 5524 5511 5497 5485 5473 5463 5451 5438 5425 5411 5397 5383 5369 5354 5339 5323
5638 5631 5618 5614 5612 5618 5626 5627 5669 5693 5690 5687 5686 5685 5684 5685 5682 5677 5674 5667 5661 5652 5641 5630 5621 5612 5600 5589 5579 5568 5557 5545 5534 5522 5510 5497 5485 5473 5460 5446 5433 5419 5405 5391 5377 5362 5348 5333 5317
5631 5623 5622 5607 5604 5599 5616 5632 5662 5690 5692 5689 5683 5679 5677 5678 5676 5673 5669 5663 5656 5648 5640 5630 5620 5610 5599 5588 5577 5565 5554 5542 5532 5519 5506 5493 5481 5468 5454 5441 5427 5413 5399 5385 5371 5356 5342 5327 5312
5633 5619 5605 5602 5597 5597 5609 5623 5646 5675 5686 5684 5679 5673 5671 5670 5668 5667 5662 5657 5650 5643 5635 5624 5615 5607 5597 5584 5573 5563 5551 5539 5527 5514 5501 5489 5476 5463 5449 5435 5421 5407 5393 5379 5365 5351 5337 5321 5307
5619 5614 5608 5595 5589 5587 5591 5623 5660 5665 5670 5666 5665 5663 5660 5660 5661 5661 5658 5651 5643 5635 5626 5617 5609 5599 5589 5580 5569 5558 5548 5534 5522 5510 5499 5486 5472 5458 5444 5431 5416 5402 5388 5374 5360 5346 5332 5317 5304
5618 5613 5602 5596 5595 5578 5572 5619 5665 5661 5659 5653 5651 5653 5653 5653 5653 5652 5648 5642 5634 5625 5617 5609 5601 5593 5585 5574 5563 5553 5542 5529 5517 5507 5496 5482 5468 5454 5440 5426 5412 5398 5384 5370 5355 5342 5329 5314 5301